Location: Casalecchio di Reno
(44.4760°N, 11.2757°E)
Time: 18:11:16
(UTC+02:00)

DX 1 - Pass Details

Date: 22 June 2024
Orbit: 607 x 619 km, 98.3° (Epoch: 19 July)

Event Time Altitude Azimuth Distance (km) Brightness Sun altitude
Rises 01:01:35 0° 18° (NNE) 2,877 ? -22.0°
Reaches altitude 10° 01:03:50 10° 24° (NNE) 1,968 ? -22.0°
Maximum altitude 01:07:59 49° 100° (E) 787 ? -22.1°
Enters shadow 01:08:14 48° 113° (ESE) 795 ? -22.1°
